Theta_e
308 308 308 308 308 308 307 308 308 308 310 310 310 310 311 311 312 317 318 316 314 312 312 316 315 316 317 319 320 322 325 326 327 327 333 335 341 346 343 346 346 346 349 350 350
306 307 308 308 308 308 308 308 308 308 308 310 310 310 310 311 317 320 318 312 311 310 315 316 318 317 319 319 320 321 323 324 325 325 328 330 338 347 347 347 352 351 347 347 347
304 304 306 307 307 308 308 308 308 308 308 309 310 310 310 311 323 325 321 312 312 314 316 316 317 319 319 319 319 320 320 322 322 323 325 330 345 346 346 348 350 350 346 343 343
301 302 302 305 306 307 307 308 308 308 309 309 310 311 312 320 326 324 319 318 311 318 318 316 319 319 320 319 320 319 319 319 320 321 322 329 344 347 344 349 347 345 343 342 341
299 299 299 302 303 305 306 307 308 308 309 309 310 313 317 322 323 323 319 313 313 317 319 318 319 320 319 320 319 319 321 320 321 321 321 337 344 348 348 345 343 340 339 339 339
298 299 299 300 301 303 305 307 308 308 309 309 310 313 322 322 319 324 322 316 318 319 318 319 322 322 321 321 321 321 324 331 330 324 332 341 347 345 344 343 344 341 337 335 335
297 298 299 299 300 302 303 306 308 308 309 309 310 316 321 321 319 322 318 317 317 319 319 319 321 322 323 322 323 331 335 339 337 333 338 341 346 349 343 343 343 341 338 335 333
297 297 298 298 300 301 303 305 308 309 310 308 312 321 321 318 319 322 318 317 317 317 319 320 320 322 323 323 323 325 333 333 342 340 340 340 348 344 341 343 342 339 336 334 331
297 297 298 299 300 301 303 307 310 309 308 311 318 320 321 318 321 322 321 320 319 318 318 318 321 322 322 323 323 325 324 328 341 341 342 341 352 344 341 342 341 339 336 332 329
298 298 298 300 300 301 304 311 313 315 316 319 320 322 320 323 323 324 322 321 322 321 321 321 322 322 322 323 323 324 324 325 333 341 342 340 352 344 342 341 342 339 335 331 328
297 298 299 300 300 301 310 314 319 324 319 321 323 319 321 321 320 322 324 323 323 322 321 322 322 321 321 322 324 324 324 325 335 342 341 343 349 344 341 341 340 338 334 330 327
297 298 299 300 301 305 310 315 317 317 320 321 322 322 321 321 323 323 323 323 323 321 321 322 321 322 322 322 323 324 326 335 340 339 341 347 347 342 341 339 338 338 334 330 326
297 298 299 301 302 313 309 311 313 315 321 320 320 321 324 322 323 323 322 322 322 322 321 321 322 322 322 322 324 325 328 337 339 341 339 344 345 345 342 339 338 335 332 329 327
297 297 299 301 310 309 312 313 313 315 323 323 319 319 319 322 323 323 321 322 321 321 321 322 323 322 323 323 324 324 327 334 342 340 339 340 338 346 344 342 340 336 332 329 328
297 298 301 304 307 311 313 313 314 316 323 320 322 321 321 323 324 323 321 321 320 321 322 324 323 323 324 324 324 330 329 336 339 336 338 344 339 346 343 345 344 339 334 331 327
297 299 303 309 309 309 309 310 317 323 322 322 323 322 322 323 322 323 322 321 321 322 322 324 324 324 324 323 324 332 334 336 333 328 329 333 333 337 345 344 344 341 336 331 328
298 299 305 307 311 311 313 319 323 323 320 324 326 322 322 323 322 322 323 322 322 323 324 325 324 322 323 327 329 326 328 327 327 327 327 329 330 329 336 337 339 343 338 332 329
300 304 308 308 310 309 313 323 324 321 320 324 325 324 323 323 323 321 322 323 323 323 324 327 326 323 323 325 325 326 327 327 327 327 327 327 325 332 336 335 334 335 338 333 329
302 310 312 316 313 311 314 322 322 321 321 322 324 327 325 323 323 323 323 323 323 323 326 327 326 323 323 323 325 325 325 327 327 326 325 324 326 330 333 335 335 335 336 332 328
308 310 318 315 315 314 315 317 321 320 323 323 324 326 327 325 323 324 324 323 323 323 324 328 329 324 323 323 324 326 325 327 327 328 327 325 326 325 329 333 337 335 336 332 329
312 314 316 313 314 318 315 316 318 320 322 322 326 324 325 325 323 323 323 322 322 322 323 327 330 328 326 326 326 325 326 328 328 328 328 327 326 327 326 327 330 334 334 333 329
313 315 313 316 323 320 317 316 316 320 321 321 322 323 324 324 325 323 323 323 323 323 324 326 330 330 327 328 327 327 327 329 329 332 328 329 327 326 328 327 329 330 333 332 329
314 318 318 318 325 323 321 319 318 318 320 321 322 322 324 327 329 324 323 325 324 325 324 330 331 332 331 329 327 328 328 328 331 330 329 330 325 326 328 329 330 331 332 330 327
315 319 322 321 321 324 324 322 322 322 320 321 322 322 323 326 329 331 325 326 327 326 326 331 330 331 330 328 328 330 328 327 329 333 329 327 326 325 327 328 331 331 331 328 325
311 318 316 322 323 322 322 323 324 324 323 324 323 323 323 325 330 329 330 328 327 328 327 332 331 329 327 327 328 328 327 327 328 329 329 327 325 325 324 325 329 331 329 327 325
309 309 309 310 316 321 320 324 323 323 323 325 326 327 328 329 331 329 330 330 330 329 329 332 331 331 329 327 327 328 327 327 327 326 326 326 326 324 327 326 329 330 328 327 325
303 305 306 308 312 315 322 319 321 320 322 323 324 325 330 329 326 327 330 330 331 331 332 333 334 334 331 329 329 331 329 327 326 326 326 326 325 327 327 328 330 330 328 327 325
Wind_Speed
21 20 20 20 19 19 18 17 13 10 10 10 10 10 11 13 15 7 12 7 7 12 9 7 6 7 8 7 7 4 10 10 9 8 10 7 6 6 6 13 9 6 12 12 12
23 22 21 20 20 19 18 18 16 12 10 10 10 10 12 15 13 14 9 9 9 16 10 13 10 10 9 9 6 10 12 15 1 6 8 8 6 11 9 13 15 15 14 14 13
23 23 21 21 21 20 20 18 17 15 11 10 10 11 12 12 8 6 3 10 14 13 6 8 7 10 9 8 9 11 12 4 7 8 7 7 11 6 13 11 12 14 13 14 14
23 24 24 22 22 21 21 20 18 17 11 10 9 10 10 5 1 4 2 14 14 8 8 9 10 11 10 10 9 8 7 6 5 8 7 7 12 11 3 15 17 13 12 13 12
24 25 26 23 23 22 21 21 19 18 12 9 8 7 5 7 1 2 1 16 15 10 10 10 11 9 10 8 10 11 7 7 5 5 9 12 11 14 15 14 16 16 14 13 11
25 26 26 26 24 24 22 21 21 18 11 8 7 5 6 9 3 1 9 14 11 11 8 10 5 3 6 7 10 5 4 5 5 10 11 13 18 7 8 13 14 13 13 12 12
28 28 28 28 26 25 24 23 21 16 10 7 6 2 8 7 2 4 10 10 8 7 8 4 2 9 6 8 5 8 9 9 8 12 12 17 11 9 13 12 14 13 12 11 11
30 30 31 30 28 26 26 24 18 11 7 6 4 3 6 3 5 7 9 7 6 6 1 1 3 3 7 5 6 10 9 12 10 12 11 15 14 11 11 13 12 11 10 10 10
32 33 31 32 29 28 26 18 8 2 4 5 3 6 5 4 6 11 12 6 9 6 4 2 5 4 7 12 11 9 12 10 10 5 13 15 16 13 11 11 10 10 9 9 9
33 34 33 32 30 30 22 3 2 5 3 2 5 6 7 8 7 8 12 9 7 8 7 7 7 9 11 11 12 13 7 8 12 9 10 11 14 14 11 10 11 10 9 8 8
35 34 34 33 32 29 7 3 6 6 8 9 2 4 5 3 4 10 10 13 9 9 12 11 10 12 14 14 5 2 7 8 7 2 10 8 12 12 11 10 10 11 10 10 10
36 36 35 32 32 13 2 5 3 6 8 14 15 13 9 2 5 10 13 13 10 12 8 8 13 9 4 6 9 6 8 10 6 4 9 10 9 9 11 11 12 11 11 11 11
36 38 36 32 22 1 10 9 2 9 7 7 12 12 13 13 11 14 16 15 12 12 11 14 7 5 12 11 12 10 12 12 8 10 2 9 10 13 13 10 11 12 11 11 12
38 39 35 35 3 10 6 2 4 7 5 9 8 7 11 12 11 12 20 12 8 12 12 9 4 8 11 10 15 11 6 9 12 14 5 15 4 16 16 15 15 15 13 13 12
40 40 34 21 15 5 3 4 8 4 5 6 7 5 10 20 13 13 17 11 13 11 7 7 11 12 12 12 13 10 10 11 14 6 9 15 7 10 16 17 20 18 15 14 13
42 38 32 6 7 12 12 9 4 6 6 5 7 10 15 19 9 12 12 10 6 8 10 4 1 8 3 5 5 13 12 10 7 5 10 8 7 8 11 16 18 18 17 15 15
41 38 19 6 2 2 5 5 6 8 3 7 7 10 17 15 13 16 16 17 12 12 12 8 10 6 13 12 14 11 13 8 8 7 1 4 5 7 3 2 6 19 19 17 15
40 25 9 7 4 7 5 7 10 1 10 2 2 7 15 17 16 14 17 17 17 12 11 12 11 13 7 9 11 14 9 7 4 4 3 5 5 4 6 2 5 5 17 18 16
35 9 2 4 6 5 7 13 7 10 2 5 5 10 14 16 15 17 17 18 17 14 8 9 9 7 3 4 4 10 9 5 3 1 8 1 4 10 7 5 8 8 16 18 17
19 7 5 5 7 9 8 17 14 3 4 4 9 3 13 17 15 19 18 17 16 17 12 7 8 9 6 7 5 4 10 5 7 4 6 5 6 4 8 9 9 11 15 17 17
6 5 5 9 6 6 10 17 17 7 5 4 3 4 3 8 20 16 16 8 19 17 11 5 8 9 8 10 12 6 8 1 4 4 5 6 4 6 2 1 8 11 14 16 17
8 3 3 3 5 4 10 12 5 13 11 8 5 6 8 8 12 20 20 18 11 14 16 11 7 12 15 4 3 4 5 8 6 6 3 6 10 5 5 4 4 6 12 15 15
8 4 1 3 5 6 4 10 11 13 14 12 11 6 6 7 5 16 18 8 9 15 15 10 8 8 6 5 5 9 8 5 2 2 8 8 4 8 8 7 7 9 12 14 15
5 4 2 2 1 6 7 11 8 5 11 14 16 15 16 14 10 6 14 6 9 13 6 11 11 14 11 13 14 14 12 12 10 6 9 9 12 6 9 9 8 10 13 14 15
3 4 4 4 1 10 6 6 8 5 4 7 10 15 16 15 15 13 10 7 7 8 8 8 13 15 15 6 10 13 14 14 13 12 10 12 12 10 8 6 8 10 13 15 16
5 4 6 7 8 9 3 3 8 8 5 5 7 9 9 14 12 8 11 9 8 11 11 7 9 11 10 9 10 12 11 12 12 11 12 13 15 11 5 3 8 11 14 15 16
8 3 3 5 4 5 1 5 5 10 4 5 8 12 9 6 11 12 9 3 2 6 11 10 9 12 11 10 9 9 11 12 10 8 9 11 6 4 3 5 8 10 12 14 15
Wind_Direction
10 6 5 4 1 359 355 354 340 313 304 304 303 304 307 307 309 277 252 245 208 192 183 185 189 188 200 205 228 251 246 235 191 205 132 136 154 82 104 109 69 69 83 108 124
6 2 359 356 355 353 351 350 347 326 301 296 296 300 306 312 297 258 248 223 215 186 199 202 192 188 198 209 199 222 232 236 106 206 154 142 179 138 143 122 107 96 101 112 117
2 0 356 351 349 348 346 343 342 334 305 292 295 302 309 318 273 105 176 175 156 167 202 210 205 203 207 203 189 206 243 170 203 221 179 116 119 140 142 125 136 122 119 110 101
359 357 354 349 346 344 341 337 334 333 308 290 294 306 310 278 278 95 281 187 179 182 182 181 193 199 207 200 178 213 228 215 191 167 201 170 117 82 63 98 100 113 113 112 102
357 355 353 348 344 341 337 331 328 327 306 285 290 306 315 233 220 1 172 167 177 188 207 197 193 202 200 188 183 234 162 188 176 190 204 127 122 100 99 114 116 109 103 93 87
357 353 351 348 343 339 335 329 323 318 295 269 275 286 271 247 83 106 148 163 185 201 195 198 202 250 159 178 218 153 196 157 202 174 166 136 133 119 130 138 123 114 97 90 87
357 352 349 348 343 338 334 328 319 308 278 243 254 252 262 267 139 153 157 181 192 203 181 187 229 221 163 159 152 154 149 144 143 155 158 144 147 97 147 143 127 122 111 106 102
355 353 348 346 342 337 333 326 317 298 256 219 216 240 270 170 174 181 180 169 185 189 164 219 233 264 244 97 179 195 204 176 144 165 164 205 143 145 160 153 137 125 114 103 87
353 351 347 343 341 335 331 325 328 317 190 167 190 248 248 180 212 203 193 182 163 183 189 175 242 239 186 206 188 198 195 202 147 190 163 222 120 157 178 168 150 141 131 121 109
350 348 345 341 339 333 331 294 72 82 128 210 254 248 229 192 147 163 192 188 165 149 166 210 216 214 218 214 205 184 209 185 174 172 198 192 100 151 169 177 163 153 146 139 127
349 346 342 340 338 332 339 277 219 187 213 238 165 255 149 178 171 193 176 186 198 207 211 205 228 215 202 218 353 130 208 180 89 143 210 182 145 167 167 181 179 168 162 154 140
348 346 340 338 337 330 10 286 4 354 287 230 244 247 246 271 216 180 177 195 198 210 196 205 229 232 230 203 212 216 196 124 120 173 228 169 166 177 175 185 192 183 178 162 148
348 346 340 336 335 17 306 267 234 339 257 245 221 230 215 205 220 183 192 205 205 216 208 242 93 173 186 182 202 215 208 165 133 140 199 177 208 194 186 203 190 197 184 166 163
345 344 341 336 358 326 295 172 295 299 267 168 199 212 193 199 213 198 199 198 202 224 213 235 186 198 200 211 209 181 210 170 155 188 196 206 262 194 187 200 204 195 189 180 164
343 339 337 335 297 275 335 294 319 227 273 116 148 129 169 190 136 182 191 208 217 194 202 153 187 203 210 194 208 100 154 162 173 208 167 196 256 108 176 211 207 203 192 184 182
340 335 328 328 243 266 286 289 239 232 243 164 149 177 173 204 197 142 187 228 241 212 222 266 149 219 145 135 179 131 138 159 204 224 236 130 250 179 178 229 205 199 191 191 181
335 332 308 244 289 273 330 204 214 241 100 170 187 188 191 184 178 181 185 196 192 192 199 186 173 143 161 120 150 178 179 201 213 201 265 78 249 298 101 133 271 189 188 191 186
334 335 306 239 269 252 261 215 234 229 224 75 228 197 203 186 191 187 192 196 216 225 194 190 171 168 182 209 176 198 203 281 236 235 86 154 249 94 98 112 162 209 181 183 188
339 331 260 305 235 217 217 217 229 242 298 240 238 219 201 203 205 196 204 211 197 214 223 207 149 136 180 162 194 171 223 19 293 175 262 184 144 172 162 161 173 165 172 177 182
331 317 7 306 187 198 213 235 241 236 271 238 251 243 213 200 202 197 196 208 209 206 235 205 162 191 142 154 72 253 131 188 205 262 268 164 245 298 164 169 172 175 181 179 185
312 293 45 77 149 212 227 228 237 225 262 262 233 283 285 243 202 204 201 182 205 193 205 201 250 164 175 207 186 164 182 238 340 304 289 294 337 84 139 179 177 189 183 181 184
317 286 41 248 232 226 239 228 335 267 212 256 273 274 279 278 251 219 214 212 189 179 197 199 238 180 201 91 331 287 241 188 246 176 244 302 293 116 139 171 210 166 172 175 177
323 299 301 263 261 234 228 256 242 256 249 243 242 242 298 291 253 233 218 125 180 187 193 168 202 170 184 174 183 219 194 217 226 278 265 285 302 150 167 205 199 188 170 164 173
303 304 120 235 24 318 337 265 261 207 259 266 265 264 265 264 256 256 228 167 203 211 33 194 211 225 213 218 200 202 201 203 214 239 270 244 282 232 200 219 192 186 171 167 176
8 39 4 316 127 331 302 297 291 272 240 258 259 240 250 249 249 225 210 177 183 159 188 198 212 225 243 260 201 212 199 198 216 236 253 270 289 301 290 314 183 181 167 173 178
345 346 339 288 292 288 185 243 297 331 295 267 281 345 272 245 265 260 204 204 192 182 188 199 216 200 192 181 195 209 202 205 222 248 264 276 284 287 57 250 168 174 176 179 181
4 346 291 296 302 281 52 345 317 331 265 310 341 317 282 350 314 301 308 56 340 198 189 184 168 188 189 182 178 219 217 220 232 236 259 275 331 68 179 187 178 174 183 182 178